owner,sensor,date,latitude,longitude,vertical_datum,direction_of_sea_water_velocity,sea_water_speed,upward_sea_water_velocity,qcFlag 
TABS,ioos:station:wmo:42044:1,1999-06-01T00:00:00Z,26.1914,-97.0507,2.0,343.2779533,23.80677425,-99999.0,'11111222,11111222,99999999' 
TABS,ioos:station:wmo:42044:1,1999-06-01T00:30:00Z,26.1914,-97.0507,2.0,345.5897768,21.5376229,-99999.0,'11111222,11111222,99999999' 
TABS,ioos:station:wmo:42044:1,1999-06-01T01:00:00Z,26.1914,-97.0507,2.0,342.6371056,22.48456582,-99999.0,'11111222,11111222,99999999' 
TABS,ioos:station:wmo:42044:1,1999-06-01T01:30:00Z,26.1914,-97.0507,2.0,350.3846592,27.65858456,-99999.0,'11111222,11111222,99999999' 
TABS,ioos:station:wmo:42044:1,1999-06-01T02:00:00Z,26.1914,-97.0507,2.0,342.6313309,22.946296,-99999.0,'11111222,11111222,99999999' 
TABS,ioos:station:wmo:42044:1,1999-06-01T02:30:00Z,26.1914,-97.0507,2.0,350.240852,22.83039421,-99999.0,'11111222,11111222,99999999' 
TABS,ioos:station:wmo:42044:1,1999-06-01T03:00:00Z,26.1914,-97.0507,2.0,349.8916718,23.75880889,-99999.0,'11111222,11111222,99999999' 
TABS,ioos:station:wmo:42044:1,1999-06-01T03:30:00Z,26.1914,-97.0507,2.0,351.7418512,25.89855787,-99999.0,'11111222,11111222,99999999' 
TABS,ioos:station:wmo:42044:1,1999-06-01T04:00:00Z,26.1914,-97.0507,2.0,347.0556611,26.60613651,-99999.0,'11111222,11111222,99999999' 
TABS,ioos:station:wmo:42044:1,1999-06-01T04:30:00Z,26.1914,-97.0507,2.0,348.3821074,26.61530575,-99999.0,'11111222,11111222,99999999' 
TABS,ioos:station:wmo:42044:1,1999-06-01T05:00:00Z,26.1914,-97.0507,2.0,346.0304799,27.17370972,-99999.0,'11111222,11111222,99999999' 
TABS,ioos:station:wmo:42044:1,1999-06-01T05:30:00Z,26.1914,-97.0507,2.0,346.2625996,26.99215627,-99999.0,'11111222,11111222,99999999' 
TABS,ioos:station:wmo:42044:1,1999-06-01T06:00:00Z,26.1914,-97.0507,2.0,349.932108,28.14339176,-99999.0,'11111222,11111222,99999999' 
TABS,ioos:station:wmo:42044:1,1999-06-01T06:30:00Z,26.1914,-97.0507,2.0,347.6986965,25.1576231,-99999.0,'11111222,11111222,99999999' 
TABS,ioos:station:wmo:42044:1,1999-06-01T07:00:00Z,26.1914,-97.0507,2.0,353.213204,27.75449513,-99999.0,'11111222,11111222,99999999' 
TABS,ioos:station:wmo:42044:1,1999-06-01T07:30:00Z,26.1914,-97.0507,2.0,351.2588314,27.43871899,-99999.0,'11111222,11111222,99999999' 
TABS,ioos:station:wmo:42044:1,1999-06-01T08:00:00Z,26.1914,-97.0507,2.0,343.7755667,24.51640471,-99999.0,'11111222,11111222,99999999' 
TABS,ioos:station:wmo:42044:1,1999-06-01T08:30:00Z,26.1914,-97.0507,2.0,349.601173,23.93311513,-99999.0,'11111222,11111222,99999999' 
TABS,ioos:station:wmo:42044:1,1999-06-01T09:00:00Z,26.1914,-97.0507,2.0,346.8205368,21.57838038,-99999.0,'11111222,11111222,99999999' 
TABS,ioos:station:wmo:42044:1,1999-06-01T09:30:00Z,26.1914,-97.0507,2.0,349.2483765,23.96064482,-99999.0,'11111222,11111222,99999999' 
TABS,ioos:station:wmo:42044:1,1999-06-01T10:00:00Z,26.1914,-97.0507,2.0,355.8113229,24.50546266,-99999.0,'11111222,11111222,99999999' 
TABS,ioos:station:wmo:42044:1,1999-06-01T10:30:00Z,26.1914,-97.0507,2.0,354.7967899,23.04496908,-99999.0,'11111222,11111222,99999999' 
TABS,ioos:station:wmo:42044:1,1999-06-01T11:00:00Z,26.1914,-97.0507,2.0,349.6075906,19.84557381,-99999.0,'11111222,11111222,99999999' 
TABS,ioos:station:wmo:42044:1,1999-06-01T11:30:00Z,26.1914,-97.0507,2.0,352.4648702,20.43648698,-99999.0,'11111222,11111222,99999999' 
TABS,ioos:station:wmo:42044:1,1999-06-01T12:00:00Z,26.1914,-97.0507,2.0,345.7159299,15.68492588,-99999.0,'11111222,11111222,99999999' 
TABS,ioos:station:wmo:42044:1,1999-06-01T12:30:00Z,26.1914,-97.0507,2.0,355.9419315,10.45621825,-99999.0,'11111222,11111222,99999999' 
TABS,ioos:station:wmo:42044:1,1999-06-01T13:00:00Z,26.1914,-97.0507,2.0,1.281778468,13.41335528,-99999.0,'11111222,11111222,99999999' 
TABS,ioos:station:wmo:42044:1,1999-06-01T13:30:00Z,26.1914,-97.0507,2.0,6.235608453,20.53146366,-99999.0,'11111222,11111222,99999999' 
TABS,ioos:station:wmo:42044:1,1999-06-01T14:00:00Z,26.1914,-97.0507,2.0,0.000210459,6.71,-99999.0,'11133222,11111222,99999999' 
TABS,ioos:station:wmo:42044:1,1999-06-01T14:30:00Z,26.1914,-97.0507,2.0,354.1529687,11.6807748,-99999.0,'11111222,11111222,99999999' 
TABS,ioos:station:wmo:42044:1,1999-06-01T15:00:00Z,26.1914,-97.0507,2.0,345.7750396,10.29569327,-99999.0,'11111222,11111222,99999999' 
TABS,ioos:station:wmo:42044:1,1999-06-01T15:30:00Z,26.1914,-97.0507,2.0,335.598442,9.004354502,-99999.0,'11133222,11111222,99999999' 
TABS,ioos:station:wmo:42044:1,1999-06-01T16:00:00Z,26.1914,-97.0507,2.0,348.9283449,21.71416588,-99999.0,'11111222,11111222,99999999' 
TABS,ioos:station:wmo:42044:1,1999-06-01T16:30:00Z,26.1914,-97.0507,2.0,343.8357491,27.29923808,-99999.0,'11111222,11111222,99999999' 
TABS,ioos:station:wmo:42044:1,1999-06-01T17:00:00Z,26.1914,-97.0507,2.0,296.8223394,0.997296345,-99999.0,'11133222,11111222,99999999' 
TABS,ioos:station:wmo:42044:1,1999-06-01T17:30:00Z,26.1914,-97.0507,2.0,322.0513856,3.398602654,-99999.0,'11133222,11111222,99999999' 
TABS,ioos:station:wmo:42044:1,1999-06-01T18:00:00Z,26.1914,-97.0507,2.0,270.0004209,6.85,-99999.0,'11133222,11111222,99999999' 
TABS,ioos:station:wmo:42044:1,1999-06-01T18:30:00Z,26.1914,-97.0507,2.0,178.3205936,15.35659467,-99999.0,'11111222,11111222,99999999' 
TABS,ioos:station:wmo:42044:1,1999-06-01T19:00:00Z,26.1914,-97.0507,2.0,302.9971707,7.106229661,-99999.0,'11133222,11111222,99999999' 
TABS,ioos:station:wmo:42044:1,1999-06-01T19:30:00Z,26.1914,-97.0507,2.0,294.5519392,5.727870459,-99999.0,'11133222,11111222,99999999' 
TABS,ioos:station:wmo:42044:1,1999-06-01T20:00:00Z,26.1914,-97.0507,2.0,318.4350996,6.963368438,-99999.0,'11133222,11111222,99999999' 
TABS,ioos:station:wmo:42044:1,1999-06-01T20:30:00Z,26.1914,-97.0507,2.0,322.6433615,11.05839952,-99999.0,'11111222,11111222,99999999' 
TABS,ioos:station:wmo:42044:1,1999-06-01T21:00:00Z,26.1914,-97.0507,2.0,318.0465353,17.83014302,-99999.0,'11111222,11111222,99999999' 
TABS,ioos:station:wmo:42044:1,1999-06-01T21:30:00Z,26.1914,-97.0507,2.0,279.4330341,6.345801762,-99999.0,'11133222,11111222,99999999' 
TABS,ioos:station:wmo:42044:1,1999-06-01T22:00:00Z,26.1914,-97.0507,2.0,292.8683693,7.282375986,-99999.0,'11133222,11111222,99999999' 
TABS,ioos:station:wmo:42044:1,1999-06-01T22:30:00Z,26.1914,-97.0507,2.0,311.3361399,11.50693704,-99999.0,'11111222,11111222,99999999' 
TABS,ioos:station:wmo:42044:1,1999-06-01T23:00:00Z,26.1914,-97.0507,2.0,309.8058989,11.63727202,-99999.0,'11111222,11111222,99999999' 
TABS,ioos:station:wmo:42044:1,1999-06-01T23:30:00Z,26.1914,-97.0507,2.0,317.2051984,13.60066175,-99999.0,'11111222,11111222,99999999' 
TABS,ioos:station:wmo:42044:1,1999-06-02T00:00:00Z,26.1914,-97.0507,2.0,326.0016859,15.451398,-99999.0,'11111222,11111222,99999999' 
TABS,ioos:station:wmo:42044:1,1999-06-02T00:30:00Z,26.1914,-97.0507,2.0,333.9715286,28.18910783,-99999.0,'11111222,11111222,99999999' 
TABS,ioos:station:wmo:42044:1,1999-06-02T01:00:00Z,26.1914,-97.0507,2.0,328.8237531,19.8579581,-99999.0,'11111222,11111222,99999999' 
TABS,ioos:station:wmo:42044:1,1999-06-02T01:30:00Z,26.1914,-97.0507,2.0,331.9595143,18.06000277,-99999.0,'11111222,11111222,99999999' 
TABS,ioos:station:wmo:42044:1,1999-06-02T02:00:00Z,26.1914,-97.0507,2.0,331.1678191,18.53810131,-99999.0,'11111222,11111222,99999999' 
TABS,ioos:station:wmo:42044:1,1999-06-02T02:30:00Z,26.1914,-97.0507,2.0,334.1486592,21.19062293,-99999.0,'11111222,11111222,99999999' 
TABS,ioos:station:wmo:42044:1,1999-06-02T03:00:00Z,26.1914,-97.0507,2.0,336.84969,23.50254667,-99999.0,'11111222,11111222,99999999' 
TABS,ioos:station:wmo:42044:1,1999-06-02T03:30:00Z,26.1914,-97.0507,2.0,337.5923313,25.78709949,-99999.0,'11111222,11111222,99999999' 
TABS,ioos:station:wmo:42044:1,1999-06-02T04:00:00Z,26.1914,-97.0507,2.0,340.8797485,27.75097296,-99999.0,'11111222,11111222,99999999' 
TABS,ioos:station:wmo:42044:1,1999-06-02T04:30:00Z,26.1914,-97.0507,2.0,334.9846516,27.12447788,-99999.0,'11111222,11111222,99999999' 
TABS,ioos:station:wmo:42044:1,1999-06-02T05:00:00Z,26.1914,-97.0507,2.0,339.8010019,27.6292689,-99999.0,'11111222,11111222,99999999' 
TABS,ioos:station:wmo:42044:1,1999-06-02T05:30:00Z,26.1914,-97.0507,2.0,334.6388099,28.52957763,-99999.0,'11111222,11111222,99999999' 
TABS,ioos:station:wmo:42044:1,1999-06-02T06:00:00Z,26.1914,-97.0507,2.0,341.2821325,28.79288975,-99999.0,'11111222,11111222,99999999' 
TABS,ioos:station:wmo:42044:1,1999-06-02T06:30:00Z,26.1914,-97.0507,2.0,345.8288468,29.8174127,-99999.0,'11111222,11111222,99999999' 
TABS,ioos:station:wmo:42044:1,1999-06-02T07:00:00Z,26.1914,-97.0507,2.0,350.7019344,35.03027976,-99999.0,'11111222,11111222,99999999' 
TABS,ioos:station:wmo:42044:1,1999-06-02T07:30:00Z,26.1914,-97.0507,2.0,352.1998047,32.93475064,-99999.0,'11111222,11111222,99999999' 
TABS,ioos:station:wmo:42044:1,1999-06-02T08:00:00Z,26.1914,-97.0507,2.0,351.6923128,35.08822167,-99999.0,'11111222,11111222,99999999' 
TABS,ioos:station:wmo:42044:1,1999-06-02T08:30:00Z,26.1914,-97.0507,2.0,349.2850045,36.08927403,-99999.0,'11111222,11111222,99999999' 
TABS,ioos:station:wmo:42044:1,1999-06-02T09:00:00Z,26.1914,-97.0507,2.0,349.773062,36.94703236,-99999.0,'11111222,11111222,99999999' 
TABS,ioos:station:wmo:42044:1,1999-06-02T09:30:00Z,26.1914,-97.0507,2.0,351.1350568,37.70037931,-99999.0,'11111222,11111222,99999999' 
TABS,ioos:station:wmo:42044:1,1999-06-02T10:00:00Z,26.1914,-97.0507,2.0,356.3735401,37.62534917,-99999.0,'11111222,11111222,99999999' 
TABS,ioos:station:wmo:42044:1,1999-06-02T10:30:00Z,26.1914,-97.0507,2.0,356.6015581,37.61615876,-99999.0,'11111222,11111222,99999999' 
TABS,ioos:station:wmo:42044:1,1999-06-02T11:00:00Z,26.1914,-97.0507,2.0,357.0373294,40.43405124,-99999.0,'11111222,11111222,99999999' 
TABS,ioos:station:wmo:42044:1,1999-06-02T11:30:00Z,26.1914,-97.0507,2.0,0.833139113,41.27436129,-99999.0,'11111222,11111222,99999999' 
TABS,ioos:station:wmo:42044:1,1999-06-02T12:00:00Z,26.1914,-97.0507,2.0,3.730919125,36.57751222,-99999.0,'11111222,11111222,99999999' 
TABS,ioos:station:wmo:42044:1,1999-06-02T12:30:00Z,26.1914,-97.0507,2.0,0.000210459,35.76,-99999.0,'11111222,11111222,99999999' 
TABS,ioos:station:wmo:42044:1,1999-06-02T13:00:00Z,26.1914,-97.0507,2.0,0.000210459,30.54,-99999.0,'11111222,11111222,99999999' 
TABS,ioos:station:wmo:42044:1,1999-06-02T13:30:00Z,26.1914,-97.0507,2.0,3.240217622,34.32486708,-99999.0,'11111222,11111222,99999999' 
TABS,ioos:station:wmo:42044:1,1999-06-02T14:00:00Z,26.1914,-97.0507,2.0,3.648350486,32.84655994,-99999.0,'11111222,11111222,99999999' 
TABS,ioos:station:wmo:42044:1,1999-06-02T14:30:00Z,26.1914,-97.0507,2.0,5.338768941,32.02893223,-99999.0,'11111222,11111222,99999999' 
TABS,ioos:station:wmo:42044:1,1999-06-02T15:00:00Z,26.1914,-97.0507,2.0,358.1817182,46.95364736,-99999.0,'11111222,11111222,99999999' 
TABS,ioos:station:wmo:42044:1,1999-06-02T15:30:00Z,26.1914,-97.0507,2.0,2.862608991,29.83722675,-99999.0,'11111222,11111222,99999999' 
TABS,ioos:station:wmo:42044:1,1999-06-02T16:00:00Z,26.1914,-97.0507,2.0,11.45091336,25.53832023,-99999.0,'11111222,11111222,99999999' 
TABS,ioos:station:wmo:42044:1,1999-06-02T16:30:00Z,26.1914,-97.0507,2.0,19.24421407,23.51387888,-99999.0,'11111222,11111222,99999999' 
TABS,ioos:station:wmo:42044:1,1999-06-02T17:00:00Z,26.1914,-97.0507,2.0,48.33302565,12.77073608,-99999.0,'11111222,11111222,99999999' 
TABS,ioos:station:wmo:42044:1,1999-06-02T17:30:00Z,26.1914,-97.0507,2.0,45.48506284,11.69596512,-99999.0,'11111222,11111222,99999999' 
TABS,ioos:station:wmo:42044:1,1999-06-02T18:00:00Z,26.1914,-97.0507,2.0,43.21638825,10.22264643,-99999.0,'11111222,11111222,99999999' 
TABS,ioos:station:wmo:42044:1,1999-06-02T18:30:00Z,26.1914,-97.0507,2.0,31.05916042,14.44020083,-99999.0,'11111222,11111222,99999999' 
TABS,ioos:station:wmo:42044:1,1999-06-02T19:00:00Z,26.1914,-97.0507,2.0,4.9367192,5.229397671,-99999.0,'11133222,11111222,99999999' 
TABS,ioos:station:wmo:42044:1,1999-06-02T19:30:00Z,26.1914,-97.0507,2.0,128.4107883,6.470340022,-99999.0,'11133222,11111222,99999999' 
TABS,ioos:station:wmo:42044:1,1999-06-02T20:00:00Z,26.1914,-97.0507,2.0,111.8279088,4.007305828,-99999.0,'11133222,11111222,99999999' 
TABS,ioos:station:wmo:42044:1,1999-06-02T20:30:00Z,26.1914,-97.0507,2.0,345.4541958,3.543585755,-99999.0,'11133222,11111222,99999999' 
TABS,ioos:station:wmo:42044:1,1999-06-02T21:00:00Z,26.1914,-97.0507,2.0,334.4048718,15.85599256,-99999.0,'11111222,11111222,99999999' 
TABS,ioos:station:wmo:42044:1,1999-06-02T21:30:00Z,26.1914,-97.0507,2.0,255.4948397,4.152348733,-99999.0,'11133222,11111222,99999999' 
TABS,ioos:station:wmo:42044:1,1999-06-02T22:00:00Z,26.1914,-97.0507,2.0,215.0003296,5.456903884,-99999.0,'11133222,11111222,99999999' 
TABS,ioos:station:wmo:42044:1,1999-06-02T22:30:00Z,26.1914,-97.0507,2.0,239.8822045,5.341048586,-99999.0,'11133222,11111222,99999999' 
TABS,ioos:station:wmo:42044:1,1999-06-02T23:00:00Z,26.1914,-97.0507,2.0,235.8824438,5.580439051,-99999.0,'11133222,11111222,99999999' 
TABS,ioos:station:wmo:42044:1,1999-06-02T23:30:00Z,26.1914,-97.0507,2.0,239.4436863,6.746925226,-99999.0,'11133222,11111222,99999999' 
TABS,ioos:station:wmo:42044:1,1999-06-03T00:00:00Z,26.1914,-97.0507,2.0,217.0739841,8.410053508,-99999.0,'11133222,11111222,99999999' 
TABS,ioos:station:wmo:42044:1,1999-06-03T00:30:00Z,26.1914,-97.0507,2.0,266.4382199,14.32766904,-99999.0,'11111222,11111222,99999999' 
TABS,ioos:station:wmo:42044:1,1999-06-03T01:00:00Z,26.1914,-97.0507,2.0,274.1177138,10.30659983,-99999.0,'11111222,11111222,99999999' 
TABS,ioos:station:wmo:42044:1,1999-06-03T01:30:00Z,26.1914,-97.0507,2.0,262.4642389,10.21824349,-99999.0,'11111222,11111222,99999999' 
TABS,ioos:station:wmo:42044:1,1999-06-03T02:00:00Z,26.1914,-97.0507,2.0,264.1378386,10.18324604,-99999.0,'11111222,11111222,99999999' 
TABS,ioos:station:wmo:42044:1,1999-06-03T02:30:00Z,26.1914,-97.0507,2.0,268.5395134,11.77382266,-99999.0,'11111222,11111222,99999999' 
TABS,ioos:station:wmo:42044:1,1999-06-03T03:00:00Z,26.1914,-97.0507,2.0,276.6638652,11.54800849,-99999.0,'11111222,11111222,99999999' 
TABS,ioos:station:wmo:42044:1,1999-06-03T03:30:00Z,26.1914,-97.0507,2.0,282.949796,13.29819537,-99999.0,'11111222,11111222,99999999' 
TABS,ioos:station:wmo:42044:1,1999-06-03T04:00:00Z,26.1914,-97.0507,2.0,284.7299966,14.63082021,-99999.0,'11111222,11111222,99999999' 
TABS,ioos:station:wmo:42044:1,1999-06-03T04:30:00Z,26.1914,-97.0507,2.0,300.1816437,14.81885961,-99999.0,'11111222,11111222,99999999' 
TABS,ioos:station:wmo:42044:1,1999-06-03T05:00:00Z,26.1914,-97.0507,2.0,295.8760571,16.72699913,-99999.0,'11111222,11111222,99999999' 
TABS,ioos:station:wmo:42044:1,1999-06-03T05:30:00Z,26.1914,-97.0507,2.0,302.4366364,18.88651635,-99999.0,'11111222,11111222,99999999' 
TABS,ioos:station:wmo:42044:1,1999-06-03T06:00:00Z,26.1914,-97.0507,2.0,303.8060337,20.61547477,-99999.0,'11111222,11111222,99999999' 
TABS,ioos:station:wmo:42044:1,1999-06-03T06:30:00Z,26.1914,-97.0507,2.0,306.1063357,22.50199991,-99999.0,'11111222,11111222,99999999' 
TABS,ioos:station:wmo:42044:1,1999-06-03T07:00:00Z,26.1914,-97.0507,2.0,318.4902418,24.27757195,-99999.0,'11111222,11111222,99999999' 
TABS,ioos:station:wmo:42044:1,1999-06-03T07:30:00Z,26.1914,-97.0507,2.0,317.8499282,25.31744458,-99999.0,'11111222,11111222,99999999' 
TABS,ioos:station:wmo:42044:1,1999-06-03T08:00:00Z,26.1914,-97.0507,2.0,323.7243172,26.43342013,-99999.0,'11111222,11111222,99999999' 
TABS,ioos:station:wmo:42044:1,1999-06-03T08:30:00Z,26.1914,-97.0507,2.0,321.4843548,27.98954984,-99999.0,'11111222,11111222,99999999' 
TABS,ioos:station:wmo:42044:1,1999-06-03T09:00:00Z,26.1914,-97.0507,2.0,322.2850684,32.39952623,-99999.0,'11111222,11111222,99999999' 
TABS,ioos:station:wmo:42044:1,1999-06-03T09:30:00Z,26.1914,-97.0507,2.0,324.4646143,33.32703557,-99999.0,'11111222,11111222,99999999' 
TABS,ioos:station:wmo:42044:1,1999-06-03T10:00:00Z,26.1914,-97.0507,2.0,325.0140075,32.73568848,-99999.0,'11111222,11111222,99999999' 
TABS,ioos:station:wmo:42044:1,1999-06-03T10:30:00Z,26.1914,-97.0507,2.0,326.5326416,32.15066562,-99999.0,'11111222,11111222,99999999' 
TABS,ioos:station:wmo:42044:1,1999-06-03T11:00:00Z,26.1914,-97.0507,2.0,328.9393225,32.34810968,-99999.0,'11111222,11111222,99999999' 
TABS,ioos:station:wmo:42044:1,1999-06-03T11:30:00Z,26.1914,-97.0507,2.0,333.0884463,33.25093984,-99999.0,'11111222,11111222,99999999' 
TABS,ioos:station:wmo:42044:1,1999-06-03T12:00:00Z,26.1914,-97.0507,2.0,332.7116452,31.51765537,-99999.0,'11111222,11111222,99999999' 
TABS,ioos:station:wmo:42044:1,1999-06-03T12:30:00Z,26.1914,-97.0507,2.0,333.8029573,32.05245856,-99999.0,'11111222,11111222,99999999' 
TABS,ioos:station:wmo:42044:1,1999-06-03T13:00:00Z,26.1914,-97.0507,2.0,337.086835,27.17420284,-99999.0,'11111222,11111222,99999999' 
TABS,ioos:station:wmo:42044:1,1999-06-03T13:30:00Z,26.1914,-97.0507,2.0,342.1886853,34.58787793,-99999.0,'11111222,11111222,99999999' 
TABS,ioos:station:wmo:42044:1,1999-06-03T14:00:00Z,26.1914,-97.0507,2.0,343.0139504,33.64790187,-99999.0,'11111222,11111222,99999999' 
TABS,ioos:station:wmo:42044:1,1999-06-03T14:30:00Z,26.1914,-97.0507,2.0,350.7414084,35.17831719,-99999.0,'11111222,11111222,99999999' 
TABS,ioos:station:wmo:42044:1,1999-06-03T15:00:00Z,26.1914,-97.0507,2.0,351.0937245,35.58912334,-99999.0,'11111222,11111222,99999999' 
TABS,ioos:station:wmo:42044:1,1999-06-03T15:30:00Z,26.1914,-97.0507,2.0,356.74599,34.1751079,-99999.0,'11111222,11111222,99999999' 
TABS,ioos:station:wmo:42044:1,1999-06-03T16:30:00Z,26.1914,-97.0507,2.0,5.543189584,26.19247602,-99999.0,'11111222,11111222,99999999' 
TABS,ioos:station:wmo:42044:1,1999-06-03T17:00:00Z,26.1914,-97.0507,2.0,14.34887796,20.45818418,-99999.0,'11111222,11111222,99999999' 
TABS,ioos:station:wmo:42044:1,1999-06-03T17:30:00Z,26.1914,-97.0507,2.0,9.622879612,25.84362204,-99999.0,'11111222,11111222,99999999' 
TABS,ioos:station:wmo:42044:1,1999-06-03T18:00:00Z,26.1914,-97.0507,2.0,7.940723269,26.92818783,-99999.0,'11111222,11111222,99999999' 
TABS,ioos:station:wmo:42044:1,1999-06-03T18:30:00Z,26.1914,-97.0507,2.0,9.268767406,28.6844993,-99999.0,'11111222,11111222,99999999' 
TABS,ioos:station:wmo:42044:1,1999-06-03T19:00:00Z,26.1914,-97.0507,2.0,4.849388196,31.70347773,-99999.0,'11111222,11111222,99999999' 
TABS,ioos:station:wmo:42044:1,1999-06-03T19:30:00Z,26.1914,-97.0507,2.0,20.51678331,22.11258917,-99999.0,'11111222,11111222,99999999' 
TABS,ioos:station:wmo:42044:1,1999-06-03T20:00:00Z,26.1914,-97.0507,2.0,28.58392306,17.1389177,-99999.0,'11111222,11111222,99999999' 
TABS,ioos:station:wmo:42044:1,1999-06-03T20:30:00Z,26.1914,-97.0507,2.0,357.3633028,48.47132451,-99999.0,'11111222,11111222,99999999' 
TABS,ioos:station:wmo:42044:1,1999-06-03T21:00:00Z,26.1914,-97.0507,2.0,5.581470914,32.18256982,-99999.0,'11111222,11111222,99999999' 
TABS,ioos:station:wmo:42044:1,1999-06-03T21:30:00Z,26.1914,-97.0507,2.0,20.61042534,16.07912,-99999.0,'11111222,11111222,99999999' 
TABS,ioos:station:wmo:42044:1,1999-06-03T22:00:00Z,26.1914,-97.0507,2.0,13.45480944,14.09689682,-99999.0,'11111222,11111222,99999999' 
TABS,ioos:station:wmo:42044:1,1999-06-03T22:30:00Z,26.1914,-97.0507,2.0,14.87048554,14.49546481,-99999.0,'11111222,11111222,99999999' 
TABS,ioos:station:wmo:42044:1,1999-06-03T23:00:00Z,26.1914,-97.0507,2.0,23.21683057,12.48067706,-99999.0,'11111222,11111222,99999999' 
TABS,ioos:station:wmo:42044:1,1999-06-03T23:30:00Z,26.1914,-97.0507,2.0,17.3322967,12.48698522,-99999.0,'11111222,11111222,99999999' 
TABS,ioos:station:wmo:42044:1,1999-06-04T00:00:00Z,26.1914,-97.0507,2.0,16.04984397,11.32127643,-99999.0,'11111222,11111222,99999999' 
TABS,ioos:station:wmo:42044:1,1999-06-04T00:30:00Z,26.1914,-97.0507,2.0,1.943886872,13.26763355,-99999.0,'11111222,11111222,99999999' 
TABS,ioos:station:wmo:42044:1,1999-06-04T01:00:00Z,26.1914,-97.0507,2.0,0.000210459,11.62,-99999.0,'11111222,11111222,99999999' 
TABS,ioos:station:wmo:42044:1,1999-06-04T01:30:00Z,26.1914,-97.0507,2.0,354.305948,10.48172219,-99999.0,'11111222,11111222,99999999' 
TABS,ioos:station:wmo:42044:1,1999-06-04T02:00:00Z,26.1914,-97.0507,2.0,343.7062011,7.449201299,-99999.0,'11133222,11111222,99999999' 
TABS,ioos:station:wmo:42044:1,1999-06-04T02:30:00Z,26.1914,-97.0507,2.0,328.3597809,6.824404736,-99999.0,'11133222,11111222,99999999' 
TABS,ioos:station:wmo:42044:1,1999-06-04T03:00:00Z,26.1914,-97.0507,2.0,330.6539406,8.202615437,-99999.0,'11133222,11111222,99999999' 
TABS,ioos:station:wmo:42044:1,1999-06-04T03:30:00Z,26.1914,-97.0507,2.0,308.3426236,8.172698453,-99999.0,'11133222,11111222,99999999' 
TABS,ioos:station:wmo:42044:1,1999-06-04T04:00:00Z,26.1914,-97.0507,2.0,307.0746155,8.410053508,-99999.0,'11133222,11111222,99999999' 
TABS,ioos:station:wmo:42044:1,1999-06-04T04:30:00Z,26.1914,-97.0507,2.0,304.7811126,8.887907515,-99999.0,'11133222,11111222,99999999' 
TABS,ioos:station:wmo:42044:1,1999-06-04T05:00:00Z,26.1914,-97.0507,2.0,299.2374682,8.537646046,-99999.0,'11133222,11111222,99999999' 
TABS,ioos:station:wmo:42044:1,1999-06-04T05:30:00Z,26.1914,-97.0507,2.0,293.8574988,9.939240414,-99999.0,'11133222,11111222,99999999' 
TABS,ioos:station:wmo:42044:1,1999-06-04T06:00:00Z,26.1914,-97.0507,2.0,307.599374,11.47292901,-99999.0,'11111222,11111222,99999999' 
TABS,ioos:station:wmo:42044:1,1999-06-04T06:30:00Z,26.1914,-97.0507,2.0,308.2483293,13.47189667,-99999.0,'11111222,11111222,99999999' 
TABS,ioos:station:wmo:42044:1,1999-06-04T07:00:00Z,26.1914,-97.0507,2.0,309.3060533,14.82339367,-99999.0,'11111222,11111222,99999999' 
TABS,ioos:station:wmo:42044:1,1999-06-04T07:30:00Z,26.1914,-97.0507,2.0,315.3725212,16.32744009,-99999.0,'11111222,11111222,99999999' 
TABS,ioos:station:wmo:42044:1,1999-06-04T08:00:00Z,26.1914,-97.0507,2.0,311.3176068,18.05436235,-99999.0,'11111222,11111222,99999999' 
TABS,ioos:station:wmo:42044:1,1999-06-04T08:30:00Z,26.1914,-97.0507,2.0,312.34199,18.1426707,-99999.0,'11111222,11111222,99999999' 
TABS,ioos:station:wmo:42044:1,1999-06-04T09:00:00Z,26.1914,-97.0507,2.0,307.3556168,18.17865232,-99999.0,'11111222,11111222,99999999' 
TABS,ioos:station:wmo:42044:1,1999-06-04T09:30:00Z,26.1914,-97.0507,2.0,310.3878097,20.92742698,-99999.0,'11111222,11111222,99999999' 
TABS,ioos:station:wmo:42044:1,1999-06-04T10:00:00Z,26.1914,-97.0507,2.0,315.2661457,22.86100829,-99999.0,'11111222,11111222,99999999' 
TABS,ioos:station:wmo:42044:1,1999-06-04T10:30:00Z,26.1914,-97.0507,2.0,315.5313244,22.12632143,-99999.0,'11111222,11111222,99999999' 
TABS,ioos:station:wmo:42044:1,1999-06-04T11:00:00Z,26.1914,-97.0507,2.0,315.8098342,22.02150313,-99999.0,'11111222,11111222,99999999' 
TABS,ioos:station:wmo:42044:1,1999-06-04T11:30:00Z,26.1914,-97.0507,2.0,309.8552124,22.3142757,-99999.0,'11111222,11111222,99999999' 
TABS,ioos:station:wmo:42044:1,1999-06-04T12:00:00Z,26.1914,-97.0507,2.0,313.768699,24.34423957,-99999.0,'11111222,11111222,99999999' 
TABS,ioos:station:wmo:42044:1,1999-06-04T12:30:00Z,26.1914,-97.0507,2.0,321.59684,27.57587714,-99999.0,'11111222,11111222,99999999' 
TABS,ioos:station:wmo:42044:1,1999-06-04T13:00:00Z,26.1914,-97.0507,2.0,310.6399861,19.43805803,-99999.0,'11111222,11111222,99999999' 
TABS,ioos:station:wmo:42044:1,1999-06-04T13:30:00Z,26.1914,-97.0507,2.0,336.0062694,46.15865899,-99999.0,'11111222,11111222,99999999' 
TABS,ioos:station:wmo:42044:1,1999-06-04T14:00:00Z,26.1914,-97.0507,2.0,328.8456904,24.20029958,-99999.0,'11111222,11111222,99999999' 
TABS,ioos:station:wmo:42044:1,1999-06-04T14:30:00Z,26.1914,-97.0507,2.0,329.0923591,26.39878974,-99999.0,'11111222,11111222,99999999' 
TABS,ioos:station:wmo:42044:1,1999-06-04T15:00:00Z,26.1914,-97.0507,2.0,337.2498546,30.0477703,-99999.0,'11111222,11111222,99999999' 
TABS,ioos:station:wmo:42044:1,1999-06-04T15:30:00Z,26.1914,-97.0507,2.0,343.8357491,27.29923808,-99999.0,'11111222,11111222,99999999' 
TABS,ioos:station:wmo:42044:1,1999-06-04T16:00:00Z,26.1914,-97.0507,2.0,349.2768521,40.03920704,-99999.0,'11111222,11111222,99999999' 
TABS,ioos:station:wmo:42044:1,1999-06-04T16:30:00Z,26.1914,-97.0507,2.0,353.5439594,46.33385048,-99999.0,'11111222,11111222,99999999' 